"2009-04-23 00:00:30",824005,5.819,307.7,3.445,0.274,15.88,107.4224,18.28,19.24,16.27,0,110.9,13.21,19.09,269.7
"2009-04-23 00:01:00",824006,6.551,296.4,2.514,0.315,15.84,107.4224,18.28,19.26,16.55,0,110.9,13.21,19.09,258.4
"2009-04-23 00:01:30",824007,6.344,303.6,3.784,0.256,15.88,107.4224,18.28,19.27,16.65,0,110.9,13.21,19.09,265.6
"2009-04-23 00:02:00",824008,6.74,299,6.115,0.28,15.89,107.4224,18.28,19.28,16.41,0,110.9,13.21,19.09,261.0
"2009-04-23 00:02:30",824009,6.748,292.9,3.808,0.273,15.89,107.4224,18.28,19.28,16.3,0,110.9,13.21,19.09,254.9
"2009-04-23 00:03:00",824010,6.645,290.4,6.501,0.172,15.94,107.4238,18.28,19.29,16.26,0,110.9,13.21,19.10,252.4
"2009-04-23 00:03:30",824011,5.794,284.4,5.455,0.167,15.96,107.4286,18.29,19.3,16.72,0,110.9,13.21,19.11,246.4
"2009-04-23 00:04:00",824012,5.762,291.7,5.383,0.169,15.91,107.432,18.3,19.31,16.41,0,110.9,13.21,19.12,253.7
"2009-04-23 00:04:30",824013,5.385,285.4,2.775,0.184,16.05,107.4342,18.31,19.31,16.59,0,110.9,13.21,19.12,247.4
"2009-04-23 00:05:00",824014,5.822,286.8,2.42,0.245,16.17,107.439,18.32,19.31,16.97,0,110.9,13.21,19.14,248.8
"2009-04-23 00:05:30",824015,5.209,284.8,3.309,0.378,16.21,107.4381,18.32,19.33,17.01,0,110.9,13.21,19.13,246.8
"2009-04-23 00:06:00",824016,4.844,284.5,4.09,0.383,16.07,107.4365,18.31,19.32,17.36,0,110.9,13.2,19.13,246.5
"2009-04-23 00:06:30",824017,5.302,290.3,2.015,0.563,16.06,107.4232,18.28,19.31,16.9,0,110.9,13.2,19.10,252.3
"2009-04-23 00:07:00",824018,5.224,293.4,5.372,0.416,16.04,107.4227,18.28,19.29,16.54,0,110.9,13.2,19.09,255.4
"2009-04-23 00:07:30",824019,5.047,300.2,3.197,0.372,16.06,107.4247,18.28,19.31,16.95,0,110.9,13.2,19.10,262.2
"2009-04-23 00:08:00",824020,5.784,303.6,1.599,0.257,16.04,107.4263,18.29,19.3,17.17,0,110.9,13.2,19.10,265.6
"2009-04-23 00:08:30",824021,5.515,301.6,1.808,0.354,16.02,107.4269,18.29,19.32,16.63,0,110.9,13.2,19.11,263.6
"2009-04-23 00:09:00",824022,5.962,295.1,5.118,0.312,16.21,107.432,18.3,19.32,16.7,0,110.9,13.2,19.12,257.1
"2009-04-23 00:09:30",824023,6.296,293.7,2.131,0.282,16.23,107.4348,18.31,19.32,16.57,0,110.9,13.2,19.13,255.7
"2009-04-23 00:10:00",824024,6.279,293.1,1.811,0.24,16.25,107.4381,18.32,19.33,16.11,0,110.9,13.2,19.13,255.1
"2009-04-23 00:10:30",824025,6.246,290.4,3.01,0.316,16.32,107.4381,18.32,19.34,16.11,0,110.9,13.2,19.13,252.4
"2009-04-23 00:11:00",824026,6.383,291.7,2.399,0.154,16.29,107.4362,18.31,19.33,16.08,0,110.9,13.2,19.13,253.7
"2009-04-23 00:11:30",824027,5.858,293.7,3.307,0.179,16.23,107.4348,18.31,19.33,15.89,0,110.9,13.21,19.13,255.7
"2009-04-23 00:12:00",824028,5.538,296.3,3.629,0.506,16.36,107.4286,18.29,19.34,16.04,0,110.9,13.21,19.11,258.3
"2009-04-23 00:12:30",824029,5.385,290.7,4.1,0.326,16.43,107.4227,18.28,19.32,16.43,0,110.9,13.21,19.09,252.7
"2009-04-23 00:13:00",824030,5.938,296.9,3.89,0.355,16.55,107.423,18.28,19.33,16.25,0,110.9,13.21,19.10,258.9
"2009-04-23 00:13:30",824031,6.173,299.2,3.465,0.228,16.53,107.4224,18.28,19.32,16.22,0,110.9,13.21,19.09,261.2
"2009-04-23 00:14:00",824032,6.174,292.5,5.035,0.443,16.3,107.423,18.28,19.32,16.03,0,110.9,13.21,19.10,254.5
"2009-04-23 00:14:30",824033,5.751,285.6,4.473,0.28,16.27,107.4239,18.28,19.33,16.33,0,110.9,13.21,19.10,247.6
"2009-04-23 00:15:00",824034,6.164,295.1,4.831,0.369,16.23,107.4239,18.28,19.31,16.23,0,110.9,13.21,19.10,257.1
"2009-04-23 00:15:30",824035,6.755,305.8,2.528,0.162,16.22,107.4254,18.29,19.3,16.22,0,110.9,13.21,19.10,267.8
"2009-04-23 00:16:00",824036,6.743,306.8,2.757,0.333,16.32,107.4258,18.29,19.3,15.42,0,110.9,13.21,19.10,268.8
"2009-04-23 00:16:30",824037,5.595,306.2,3.897,0.278,16.22,107.4251,18.29,19.3,14.87,0,110.9,13.21,19.10,268.2
"2009-04-23 00:17:00",824038,5.351,299.1,2.73,0.15,16.16,107.4278,18.29,19.29,15.32,0,110.9,13.21,19.11,261.1
"2009-04-23 00:17:30",824039,5.405,298.8,2.877,0.352,16.1,107.4266,18.29,19.28,15.92,0,110.9,13.21,19.10,260.8
"2009-04-23 00:18:00",824040,6.054,302.3,3.182,0.358,16.07,107.4318,18.3,19.29,16.17,0,110.9,13.21,19.12,264.3
"2009-04-23 00:18:30",824041,5.853,302.4,2.573,0.286,16.06,107.4333,18.31,19.3,15.99,0,110.9,13.21,19.12,264.4
"2009-04-23 00:19:00",824042,5.837,301.6,4.908,0.315,16.11,107.433,18.31,19.29,16.01,0,110.9,13.21,19.12,263.6
"2009-04-23 00:19:30",824043,6.197,308.7,2.249,0.346,16.16,107.4348,18.31,19.3,15.93,0,110.9,13.21,19.13,270.7
"2009-04-23 00:20:00",824044,6.384,309.9,2.427,0.259,16.15,107.4327,18.3,19.3,15.63,0,110.9,13.21,19.12,271.9
"2009-04-23 00:20:30",824045,6.122,303.9,2.78,0.296,16.18,107.4333,18.31,19.32,15.46,0,110.9,13.21,19.12,265.9
"2009-04-23 00:21:00",824046,5.569,303.3,1.66,0.173,16.1,107.4345,18.31,19.32,15.61,0,110.9,13.21,19.13,265.3
"2009-04-23 00:21:30",824047,6.258,296,3.441,0.306,16.08,107.4353,18.31,19.32,15.69,0,110.9,13.21,19.13,258.0
"2009-04-23 00:22:00",824048,6.601,298.2,3.949,0.112,16.09,107.4428,18.33,19.35,15.73,0,110.9,13.21,19.15,260.2
"2009-04-23 00:22:30",824049,5.896,299.4,1.958,0.154,16.12,107.4532,18.36,19.35,15.7,0,110.9,13.21,19.17,261.4
"2009-04-23 00:23:00",824050,5.823,299.5,3.23,0.1,16.12,107.4646,18.39,19.37,15.72,0,110.9,13.21,19.20,261.5
"2009-04-23 00:23:30",824051,5.842,298.1,1.434,0.143,16.11,107.4676,18.39,19.37,15.8,0,110.9,13.21,19.21,260.1
"2009-04-23 00:24:00",824052,6.401,303,1.683,0.25,16.19,107.4679,18.39,19.37,15.6,0,110.9,13.21,19.21,265.0
"2009-04-23 00:24:30",824053,5.801,298.7,3.304,0.192,16.2,107.4679,18.39,19.39,15.53,0,110.9,13.21,19.21,260.7
"2009-04-23 00:25:00",824054,6.019,299.2,2.938,0.415,16.19,107.4676,18.39,19.4,15.58,0,110.9,13.21,19.21,261.2
"2009-04-23 00:25:30",824055,6.251,301.1,1.738,0.192,16.21,107.47,18.4,19.41,15.61,0,110.9,13.21,19.22,263.1
"2009-04-23 00:26:00",824056,6.2,304.4,1.738,0.437,16.22,107.4752,18.41,19.42,15.64,0,110.9,13.21,19.23,266.4
"2009-04-23 00:26:30",824057,6.456,304.2,1.927,0.241,16.21,107.4865,18.44,19.44,15.83,0,110.9,13.21,19.26,266.2
"2009-04-23 00:27:00",824058,5.609,309.1,2.535,0.272,16.17,107.492,18.46,19.44,15.8,0,110.9,13.21,19.27,271.1
"2009-04-23 00:27:30",824059,5.687,312.5,2.065,0.374,16.23,107.5,18.48,19.44,15.79,0,110.9,13.21,19.29,274.5
"2009-04-23 00:28:00",824060,5.046,308.4,4.261,0.2,16.23,107.5039,18.49,19.46,15.85,0,110.9,13.21,19.30,270.4
"2009-04-23 00:28:30",824061,5.521,308.2,3.368,0.55,16.23,107.5023,18.48,19.47,16.19,0,110.9,13.21,19.30,270.2
"2009-04-23 00:29:00",824062,5.953,314.7,2.912,0.417,16.25,107.5029,18.48,19.48,16.36,0,110.9,13.21,19.30,276.7
"2009-04-23 00:29:30",824063,6.49,311.6,5.55,0.504,16.25,107.5032,18.49,19.47,16.4,0,110.9,13.21,19.30,273.6
"2009-04-23 00:30:00",824064,7.811,307.3,2,0.124,16.31,107.5041,18.49,19.49,15.88,0,110.9,13.21,19.30,269.3
"2009-04-23 00:30:30",824065,7.872,312.2,2.358,0.133,16.35,107.5053,18.49,19.5,15.17,0,110.9,13.21,19.31,274.2
"2009-04-23 00:31:00",824066,7.978,311.2,0.888,0.156,16.34,107.5083,18.5,19.49,14.91,0,110.9,13.21,19.32,273.2
"2009-04-23 00:31:30",824067,7.83,312.4,2.325,0.162,16.41,107.512,18.51,19.52,14.83,0,110.9,13.21,19.32,274.4
"2009-04-23 00:32:00",824068,7.962,314,1.441,0.246,16.35,107.5197,18.53,19.51,14.89,0,110.9,13.21,19.34,276.0
"2009-04-23 00:32:30",824069,8.14,314.3,2.049,0.179,16.41,107.529,18.55,19.52,14.91,0,110.9,13.21,19.37,276.3
"2009-04-23 00:33:00",824070,8.11,314,1.188,0.17,16.35,107.5437,18.59,19.53,14.96,0,110.9,13.21,19.41,276.0
"2009-04-23 00:33:30",824071,7.399,314.4,1.236,0.366,16.43,107.5469,18.6,19.54,15.04,0,110.9,13.21,19.41,276.4
"2009-04-23 00:34:00",824072,8.07,315.5,2.15,0.44,16.41,107.5475,18.6,19.56,15.17,0,110.9,13.21,19.42,277.5
"2009-04-23 00:34:30",824073,7.939,320.5,2.896,0.243,16.44,107.5472,18.6,19.57,15.32,0,110.9,13.21,19.42,282.5
"2009-04-23 00:35:00",824074,7.919,318,1.383,0.216,16.44,107.5472,18.6,19.57,15.28,0,110.9,13.21,19.42,280.0
"2009-04-23 00:35:30",824075,7.676,319.3,1.249,0.148,16.46,107.5508,18.61,19.59,15.32,0,110.9,13.21,19.42,281.3
"2009-04-23 00:36:00",824076,7.633,319,2.329,0.374,16.44,107.5514,18.61,19.61,15.26,0,110.9,13.21,19.43,281.0
"2009-04-23 00:36:30",824077,7.668,315.7,1.884,0.233,16.46,107.5546,18.62,19.6,15.27,0,110.9,13.21,19.43,277.7
"2009-04-23 00:37:00",824078,7.824,320.3,1.212,0.17,16.45,107.5638,18.64,19.62,15.27,0,110.9,13.21,19.46,282.3
"2009-04-23 00:37:30",824079,7.748,322.8,1.104,0.109,16.36,107.574,18.67,19.62,15.26,0,110.9,13.21,19.48,284.8
"2009-04-23 00:38:00",824080,7.267,324.9,1.476,0.176,16.44,107.5749,18.67,19.63,15.27,0,110.9,13.21,19.49,286.9
"2009-04-23 00:38:30",824081,6.465,317.5,2.777,0.378,16.42,107.5801,18.68,19.64,15.29,0,110.9,13.21,19.50,279.5
"2009-04-23 00:39:00",824082,7.066,312.3,1.622,0.426,16.41,107.5829,18.69,19.65,15.38,0,110.9,13.21,19.51,274.3
"2009-04-23 00:39:30",824083,6.967,314.7,2.479,0.272,16.4,107.5884,18.7,19.65,15.37,0,110.9,13.21,19.52,276.7
"2009-04-23 00:40:00",824084,6.784,314.9,1.106,0.209,16.47,107.5919,18.71,19.66,15.32,0,110.9,13.21,19.53,276.9
"2009-04-23 00:40:30",824085,6.629,315.8,1.575,0.202,16.43,107.5893,18.71,19.66,15.28,0,110.9,13.21,19.52,277.8
"2009-04-23 00:41:00",824086,7.168,315.1,1.042,0.17,16.44,107.5902,18.71,19.68,15.33,0,110.9,13.21,19.53,277.1
"2009-04-23 00:41:30",824087,6.974,314,2.341,0.172,16.49,107.5899,18.71,19.67,15.36,0,110.9,13.21,19.53,276.0
"2009-04-23 00:42:00",824088,7.402,315.6,0.867,0.37,16.5,107.59,18.71,19.67,15.38,0,110.9,13.21,19.53,277.6
"2009-04-23 00:42:30",824089,6.848,312.4,2.859,0.398,16.46,107.5899,18.71,19.67,15.39,0,110.9,13.21,19.53,274.4
"2009-04-23 00:43:00",824090,7.145,313.1,1.629,0.42,16.48,107.5934,18.72,19.68,15.45,0,110.9,13.21,19.53,275.1
"2009-04-23 00:43:30",824091,7.214,312.5,1.334,0.259,16.51,107.5925,18.71,19.68,15.47,0,110.9,13.21,19.53,274.5
"2009-04-23 00:44:00",824092,7.144,313.9,0.798,0.393,16.49,107.5928,18.72,19.69,15.52,0,110.9,13.21,19.53,275.9
"2009-04-23 00:44:30",824093,6.842,314.6,1.294,0.253,16.5,107.5928,18.72,19.68,15.6,0,110.9,13.21,19.53,276.6
"2009-04-23 00:45:00",824094,6.771,312.7,2.481,0.293,16.49,107.5934,18.72,19.69,15.6,0,110.9,13.21,19.53,274.7
"2009-04-23 00:45:30",824095,6.651,312.1,1.552,0.292,16.48,107.5934,18.72,19.69,15.64,0,110.9,13.21,19.53,274.1
"2009-04-23 00:46:00",824096,6.907,316,3.097,0.419,16.5,107.5934,18.72,19.7,15.69,0,110.9,13.21,19.53,278.0
"2009-04-23 00:46:30",824097,6.626,315.1,2.581,0.395,16.51,107.5928,18.72,19.7,15.73,0,110.9,13.21,19.53,277.1
"2009-04-23 00:47:00",824098,6.829,321.2,2.495,0.259,16.48,107.5931,18.72,19.69,15.76,0,110.9,13.21,19.53,283.2
"2009-04-23 00:47:30",824099,6.51,323.8,3.351,0.216,16.47,107.5937,18.72,19.7,15.74,0,110.9,13.21,19.53,285.8
"2009-04-23 00:48:00",824100,6.515,325.5,1.258,0.174,16.47,107.5922,18.71,19.69,15.68,0,110.9,13.21,19.53,287.5
"2009-04-23 00:48:30",824101,6.594,327.7,2.804,0.316,16.46,107.5934,18.72,19.7,15.71,0,110.9,13.21,19.53,289.7
"2009-04-23 00:49:00",824102,6.242,331.2,2.43,0.157,16.48,107.5937,18.72,19.69,15.81,0,110.9,13.21,19.53,293.2
"2009-04-23 00:49:30",824103,6.304,325.6,4.124,0.145,16.51,107.5928,18.72,19.69,15.87,0,110.9,13.21,19.53,287.6
"2009-04-23 00:50:00",824104,6.202,321.2,0.958,0.142,16.53,107.5934,18.72,19.7,15.91,0,110.9,13.21,19.53,283.2
"2009-04-23 00:50:30",824105,5.431,321.6,1.936,0.508,16.51,107.5925,18.71,19.7,15.98,0,110.9,13.21,19.53,283.6
"2009-04-23 00:51:00",824106,4.82,322.4,3.587,0.263,16.42,107.5908,18.71,19.69,16.18,0,110.9,13.21,19.53,284.4
"2009-04-23 00:51:30",824107,5.469,321.5,1.828,0.194,16.44,107.5889,18.71,19.69,16.23,0,110.9,13.21,19.52,283.5
"2009-04-23 00:52:00",824108,5.409,317.9,1.982,0.212,16.46,107.5903,18.71,19.68,16.23,0,110.9,13.21,19.53,279.9
"2009-04-23 00:52:30",824109,5.199,315.6,2.541,0.099,16.43,107.5872,18.7,19.71,16.12,0,110.9,13.21,19.52,277.6
"2009-04-23 00:53:00",824110,5.022,316.8,1.673,0.127,16.4,107.5861,18.7,19.7,16.07,0,110.9,13.21,19.52,278.8
"2009-04-23 00:53:30",824111,5.166,325.8,3.939,0.155,16.36,107.5841,18.69,19.68,16.18,0,110.9,13.21,19.51,287.8
"2009-04-23 00:54:00",824112,5.304,329.4,2.823,0.24,16.35,107.5844,18.69,19.69,16.37,0,110.9,13.21,19.51,291.4
"2009-04-23 00:54:30",824113,6.062,326.3,2.86,0.154,16.38,107.5818,18.69,19.69,16.35,0,110.9,13.21,19.50,288.3
"2009-04-23 00:55:00",824114,6.044,321.5,2.354,0.227,16.45,107.5832,18.69,19.7,16.37,0,110.9,13.21,19.51,283.5
"2009-04-23 00:55:30",824115,5.95,321.1,1.073,0.168,16.47,107.5827,18.69,19.7,16.17,0,110.9,13.22,19.51,283.1
"2009-04-23 00:56:00",824116,5.669,324.8,2.421,0.143,16.41,107.5807,18.68,19.71,15.95,0,110.9,13.21,19.50,286.8
"2009-04-23 00:56:30",824117,5.93,324.4,2.287,0.135,16.43,107.5714,18.66,19.68,16.03,0,110.9,13.21,19.48,286.4
"2009-04-23 00:57:00",824118,5.383,326.9,1.461,0.234,16.43,107.5621,18.64,19.7,15.96,0,110.8,13.21,19.45,288.9
"2009-04-23 00:57:30",824119,5.182,328.1,1.297,0.081,16.35,107.5602,18.63,19.69,15.99,0,110.8,13.21,19.45,290.1
"2009-04-23 00:58:00",824120,5.445,323.6,2.662,0.172,16.43,107.5599,18.63,19.67,16.11,0,110.8,13.21,19.45,285.6
"2009-04-23 00:58:30",824121,5.133,324.4,2.035,0.139,16.41,107.5599,18.63,19.68,15.89,0,110.8,13.21,19.45,286.4
"2009-04-23 00:59:00",824122,4.772,327.2,2.472,0.136,16.4,107.5602,18.63,19.67,16.01,0,110.8,13.21,19.45,289.2
"2009-04-23 00:59:30",824123,4.827,324.1,2.682,0.362,16.35,107.5599,18.63,19.68,16.08,0,110.8,13.21,19.45,286.1
"2009-04-23 01:00:00",824124,5.638,320,2.712,0.188,16.48,107.5599,18.63,19.68,16.01,0,110.8,13.21,19.45,282.0
"2009-04-23 01:00:30",824125,5.378,320.7,3.144,0.352,16.43,107.5599,18.63,19.68,15.95,0,110.8,13.21,19.45,282.7
"2009-04-23 01:01:00",824126,5.096,319.5,3.552,0.184,16.47,107.5599,18.63,19.68,15.99,0,110.8,13.21,19.45,281.5
"2009-04-23 01:01:30",824127,5.067,321.6,2.171,0.214,16.5,107.5599,18.63,19.68,15.9,0,110.8,13.21,19.45,283.6
"2009-04-23 01:02:00",824128,4.479,320.5,2.377,0.14,16.47,107.5599,18.63,19.66,15.86,0,110.8,13.21,19.45,282.5
"2009-04-23 01:02:30",824129,4.652,320.2,4.105,0.198,16.45,107.5599,18.63,19.66,15.86,0,110.8,13.21,19.45,282.2
"2009-04-23 01:03:00",824130,4.597,324.5,2.887,0.314,16.35,107.5599,18.63,19.66,15.99,0,110.8,13.22,19.45,286.5
"2009-04-23 01:03:30",824131,4.551,322.8,2.275,0.251,16.39,107.5599,18.63,19.66,16.06,0,110.8,13.22,19.45,284.8
"2009-04-23 01:04:00",824132,4.771,322.2,3.099,0.214,16.43,107.5599,18.63,19.66,16.07,0,110.8,13.22,19.45,284.2
"2009-04-23 01:04:30",824133,4.909,324.7,2.259,0.125,16.37,107.5599,18.63,19.65,16.04,0,110.8,13.22,19.45,286.7
"2009-04-23 01:05:00",824134,4.498,328.2,1.153,0.085,16.37,107.5582,18.63,19.66,16.13,0,110.8,13.22,19.44,290.2
"2009-04-23 01:05:30",824135,4.373,330.3,1.354,0.081,16.37,107.5554,18.62,19.64,16.22,0,110.8,13.22,19.44,292.3
"2009-04-23 01:06:00",824136,4.441,329.1,1.294,0.104,16.39,107.5495,18.6,19.64,16.27,0,110.8,13.22,19.42,291.1
"2009-04-23 01:06:30",824137,4.562,326.5,1.476,0.119,16.4,107.543,18.59,19.63,16.2,0,110.8,13.22,19.40,288.5
"2009-04-23 01:07:00",824138,4.421,327,1.68,0.085,16.46,107.5385,18.58,19.62,16.09,0,110.8,13.22,19.39,289.0
"2009-04-23 01:07:30",824139,4.245,323.7,1.731,0.072,16.4,107.5349,18.57,19.63,16.03,0,110.8,13.22,19.38,285.7
"2009-04-23 01:08:00",824140,4.143,327.2,1.435,0.102,16.38,107.5281,18.55,19.63,16,0,110.8,13.22,19.37,289.2
"2009-04-23 01:08:30",824141,4.106,327.5,1.345,0.077,16.32,107.5267,18.55,19.62,15.98,0,110.8,13.22,19.36,289.5
"2009-04-23 01:09:00",824142,3.9,330.5,1.727,0.088,16.38,107.5261,18.54,19.63,16.1,0,110.8,13.22,19.36,292.5
"2009-04-23 01:09:30",824143,3.986,326,1.566,0.049,16.33,107.5261,18.54,19.62,16.16,0,110.8,13.22,19.36,288.0
"2009-04-23 01:10:00",824144,4.272,325.5,1.754,0.176,16.4,107.5261,18.54,19.62,16.15,0,110.8,13.22,19.36,287.5
"2009-04-23 01:10:30",824145,4.451,325.7,0.76,0.1,16.49,107.5261,18.54,19.61,16.07,0,110.8,13.22,19.36,287.7
"2009-04-23 01:11:00",824146,4.132,326.3,2.007,0.226,16.37,107.5261,18.54,19.61,15.96,0,110.8,13.22,19.36,288.3
"2009-04-23 01:11:30",824147,4.038,325.5,1.236,0.121,16.38,107.5261,18.54,19.61,15.91,0,110.8,13.22,19.36,287.5
"2009-04-23 01:12:00",824148,3.971,324.5,1.16,0.115,16.44,107.5261,18.54,19.61,15.92,0,110.8,13.22,19.36,286.5
"2009-04-23 01:12:30",824149,4.193,320.8,2.311,0.144,16.43,107.5261,18.54,19.58,15.92,0,110.8,13.22,19.36,282.8
"2009-04-23 01:13:00",824150,3.791,320.2,1.338,0.078,16.47,107.5261,18.54,19.59,15.94,0,110.8,13.22,19.36,282.2
"2009-04-23 01:13:30",824151,3.627,323.6,1.56,0.067,16.34,107.5261,18.54,19.58,15.95,0,110.8,13.22,19.36,285.6
"2009-04-23 01:14:00",824152,3.693,324.2,1.672,0.06,16.43,107.5256,18.54,19.59,16,0,110.8,13.21,19.36,286.2
"2009-04-23 01:14:30",824153,3.6,323.5,1.493,0.104,16.5,107.5256,18.54,19.57,15.99,0,110.8,13.21,19.36,285.5
"2009-04-23 01:15:00",824154,3.255,325,1.322,0.123,16.47,107.5239,18.54,19.57,16,0,110.8,13.21,19.36,287.0
"2009-04-23 01:15:30",824155,3.241,321.1,2.031,0.136,16.43,107.516,18.52,19.57,16.02,0,110.8,13.21,19.33,283.1
"2009-04-23 01:16:00",824156,2.81,328.4,3.523,0.124,16.54,107.5127,18.51,19.55,16.04,0,110.8,13.21,19.33,290.4
"2009-04-23 01:16:30",824157,2.692,325.8,3.245,0.155,16.43,107.5062,18.49,19.56,16.05,0,110.8,13.21,19.31,287.8
"2009-04-23 01:17:00",824158,2.869,329,1.188,0.087,16.41,107.4964,18.47,19.55,16.07,0,110.8,13.21,19.28,291.0
"2009-04-23 01:17:30",824159,2.849,329.6,0.982,0.082,16.49,107.4947,18.46,19.55,16.09,0,110.8,13.21,19.28,291.6
"2009-04-23 01:18:00",824160,2.677,326.2,2.415,0.124,16.44,107.4927,18.46,19.55,16.08,0,110.8,13.21,19.27,288.2
"2009-04-23 01:18:30",824161,2.392,329,1.754,0.202,16.5,107.4939,18.46,19.53,16.1,0,110.8,13.21,19.28,291.0
"2009-04-23 01:19:00",824162,1.809,324.3,3.82,0.112,16.35,107.496,18.47,19.53,16.09,0,110.8,13.22,19.28,286.3
"2009-04-23 01:19:30",824163,1.557,319.4,3.257,0.124,16.42,107.4951,18.46,19.53,16.11,0,110.8,13.22,19.28,281.4
"2009-04-23 01:20:00",824164,1.334,319,5.309,0.075,16.42,107.4972,18.47,19.52,16.13,0,110.8,13.22,19.29,281.0
"2009-04-23 01:20:30",824165,1.406,315.3,4.329,0.079,16.37,107.4988,18.47,19.52,16.14,0,110.8,13.22,19.29,277.3
"2009-04-23 01:21:00",824166,1.651,322.6,2.76,0.091,16.33,107.4957,18.47,19.52,16.14,0,110.8,13.22,19.28,284.6
"2009-04-23 01:21:30",824167,1.575,325.2,1.743,0.055,16.39,107.4913,18.45,19.5,16.16,0,110.8,13.22,19.27,287.2
"2009-04-23 01:22:00",824168,1.405,321.6,3.094,0.088,16.44,107.4824,18.43,19.49,16.18,0,110.8,13.22,19.25,283.6
"2009-04-23 01:22:30",824169,1.32,317.6,2.089,0.069,16.49,107.4795,18.42,19.47,16.17,0,110.8,13.22,19.24,279.6
"2009-04-23 01:23:00",824170,1.369,313.2,1.261,0.053,16.45,107.4752,18.41,19.47,16.19,0,110.8,13.22,19.23,275.2
"2009-04-23 01:23:30",824171,1.264,313.3,1.657,0.052,16.38,107.4762,18.42,19.46,16.2,0,110.8,13.22,19.23,275.3
"2009-04-23 01:24:00",824172,1.247,316.2,1.304,0.048,16.52,107.475,18.41,19.45,16.22,0,110.8,13.22,19.23,278.2
"2009-04-23 01:24:30",824173,1.183,314.6,0.945,0.046,16.42,107.4792,18.42,19.45,16.23,0,110.8,13.22,19.24,276.6
"2009-04-23 01:25:00",824174,1.134,314.3,0.736,0.045,16.46,107.4789,18.42,19.45,16.25,0,110.8,13.22,19.24,276.3
"2009-04-23 01:25:30",824175,1.272,313.8,1.005,0.045,16.37,107.4774,18.42,19.42,16.26,0,110.8,13.22,19.24,275.8
"2009-04-23 01:26:00",824176,1.49,316.4,4.458,0.102,16.45,107.4677,18.39,19.41,16.29,0,110.8,13.22,19.21,278.4
"2009-04-23 01:26:30",824177,1.637,316.7,2.38,0.067,16.49,107.4594,18.37,19.4,16.36,0,110.8,13.22,19.19,278.7
"2009-04-23 01:27:00",824178,1.473,317.7,2.261,0.117,16.48,107.4505,18.35,19.38,16.4,0,110.8,13.22,19.17,279.7
"2009-04-23 01:27:30",824179,1.389,322.6,3.202,0.081,16.47,107.4509,18.35,19.37,16.44,0,110.8,13.22,19.17,284.6
"2009-04-23 01:28:00",824180,1.317,318.8,4.919,0.097,16.56,107.4521,18.35,19.35,16.49,0,110.8,13.22,19.17,280.8
"2009-04-23 01:28:30",824181,1.449,313.2,1.359,0.08,16.65,107.4542,18.36,19.36,16.5,0,110.8,13.22,19.18,275.2
"2009-04-23 01:29:00",824182,1.439,325.2,4.515,0.127,16.65,107.4552,18.36,19.35,16.5,0,110.8,13.22,19.18,287.2
"2009-04-23 01:29:30",824183,1.409,324.5,2.04,0.047,16.77,107.4519,18.35,19.34,16.53,0,110.8,13.22,19.17,286.5
"2009-04-23 01:30:00",824184,1.376,328.4,5.705,0.074,16.7,107.443,18.33,19.32,16.55,0,110.8,13.22,19.15,290.4
"2009-04-23 01:30:30",824185,1.279,331.6,3.3,0.075,16.64,107.4285,18.29,19.31,16.6,0,110.8,13.22,19.11,293.6
"2009-04-23 01:31:00",824186,1.307,325.3,2.18,0.057,16.81,107.4271,18.29,19.32,16.65,0,110.8,13.22,19.11,287.3
"2009-04-23 01:31:30",824187,1.288,326.2,2.468,0.044,16.83,107.4274,18.29,19.31,16.63,0,110.8,13.22,19.11,288.2
"2009-04-23 01:32:00",824188,1.273,326.8,2.329,0.052,16.85,107.4271,18.29,19.29,16.63,0,110.8,13.22,19.11,288.8
"2009-04-23 01:32:30",824189,1.456,325.8,4.268,0.12,16.79,107.4235,18.28,19.25,16.65,0,110.8,13.22,19.10,287.8
"2009-04-23 01:33:00",824190,1.506,325.4,2.594,0.065,16.82,107.4041,18.23,19.25,16.67,0,110.8,13.22,19.05,287.4
"2009-04-23 01:33:30",824191,1.126,329.7,2.782,0.144,16.79,107.3937,18.2,19.23,16.68,0,110.8,13.22,19.02,291.7
"2009-04-23 01:34:00",824192,0.712,325.9,2.637,0.082,16.89,107.3937,18.2,19.22,16.69,0,110.8,13.22,19.02,287.9
"2009-04-23 01:34:30",824193,0.966,328.2,1.785,0.071,16.74,107.3931,18.2,19.21,16.69,0,110.8,13.22,19.02,290.2
"2009-04-23 01:35:00",824194,1.119,330.6,4.903,0.118,16.87,107.3813,18.17,19.19,16.67,0,110.8,13.22,18.99,292.6
"2009-04-23 01:35:30",824195,1.136,334.3,4.423,0.084,16.9,107.3621,18.12,19.17,16.69,0,110.8,13.22,18.94,296.3
"2009-04-23 01:36:00",824196,1.255,343.4,3.782,0.08,17.11,107.3599,18.12,19.16,16.72,0,110.8,13.22,18.93,305.4
"2009-04-23 01:36:30",824197,0.969,337,10.97,0.163,16.97,107.3557,18.11,19.14,16.67,0,110.8,13.22,18.92,299.0
"2009-04-23 01:37:00",824198,0.759,314,4.944,0.076,17.11,107.3363,18.06,19.13,16.69,0,110.8,13.23,18.87,276.0
"2009-04-23 01:37:30",824199,1.008,314.6,3.377,0.09,17.2,107.3261,18.03,19.12,16.7,0,110.8,13.23,18.85,276.6
"2009-04-23 01:38:00",824200,1.268,326.6,5.14,0.204,17.01,107.3163,18.01,19.08,16.72,0,110.8,13.23,18.82,288.6
"2009-04-23 01:38:30",824201,1.634,320.9,4.767,0.117,17.17,107.2932,17.95,19.05,16.45,0,110.8,13.23,18.76,282.9
"2009-04-23 01:39:00",824202,1.685,332.1,8.13,0.244,16.98,107.2921,17.94,19.02,16.47,0,110.8,13.23,18.76,294.1
"2009-04-23 01:39:30",824203,1.312,334.6,8.87,0.215,17.07,107.2654,17.88,19,16.61,0,110.7,13.24,18.69,296.6
"2009-04-23 01:40:00",824204,1.407,323.8,10.7,0.159,17.14,107.2535,17.85,18.95,16.52,0,110.7,13.24,18.66,285.8
"2009-04-23 01:40:30",824205,1.533,305.1,5.095,0.258,17.14,107.226,17.77,18.91,16.51,0,110.7,13.24,18.59,267.1
"2009-04-23 01:41:00",824206,1.696,320.2,9.12,0.346,17.02,107.2248,17.77,18.88,16.57,0,110.7,13.24,18.59,282.2
"2009-04-23 01:41:30",824207,1.365,335.7,10.11,0.128,17.03,107.2127,17.74,18.85,16.91,0,110.7,13.24,18.55,297.7
"2009-04-23 01:42:00",824208,1.408,346.3,4.969,0.16,16.94,107.1919,17.69,18.8,17.11,0,110.7,13.24,18.50,308.3
"2009-04-23 01:42:30",824209,1.721,344.8,3.607,0.122,16.96,107.1914,17.69,18.79,17.17,0,110.7,13.24,18.50,306.8
"2009-04-23 01:43:00",824210,1.51,343.3,2.143,0.157,16.99,107.1828,17.66,18.77,17.15,0,110.7,13.24,18.48,305.3
"2009-04-23 01:43:30",824211,0.942,344.1,4.742,0.204,17.05,107.1612,17.61,18.73,17.1,0,110.7,13.24,18.42,306.1
"2009-04-23 01:44:00",824212,0.812,349.2,7.617,0.242,17.07,107.1649,17.62,18.7,17.15,0,110.7,13.24,18.43,311.2
"2009-04-23 01:44:30",824213,0.79,320.3,9.64,0.171,17.05,107.15,17.58,18.68,17.11,0,110.7,13.24,18.39,282.3
"2009-04-23 01:45:00",824214,0.423,313.8,3.525,0.159,17.12,107.138,17.55,18.67,16.86,0,110.7,13.24,18.36,275.8
"2009-04-23 01:45:30",824215,0.469,323.8,7.178,0.11,17.08,107.1358,17.54,18.64,16.73,0,110.7,13.24,18.36,285.8
"2009-04-23 01:46:00",824216,0.571,295.1,15.58,0.212,17.3,107.1114,17.48,18.59,16.5,0,110.7,13.24,18.29,257.1
"2009-04-23 01:46:30",824217,0.408,298.5,7.186,0.089,17.33,107.1109,17.48,18.59,16.5,0,110.7,13.24,18.29,260.5
"2009-04-23 01:47:00",824218,0.593,302.9,3.793,0.078,17.1,107.1087,17.47,18.56,16.54,0,110.7,13.24,18.29,264.9
"2009-04-23 01:47:30",824219,0.538,293.2,2.69,0.058,17.39,107.092,17.43,18.52,16.63,0,110.7,13.24,18.24,255.2
"2009-04-23 01:48:00",824220,0.565,297.5,6.096,0.081,17.38,107.0913,17.43,18.5,16.73,0,110.7,13.24,18.24,259.5